Weather Roundup
Issued by NWS Chicago, IL

Home | Current Version | Previous Version | Graphics & Text | Print | Product List | Glossary On
Versions: 1 2 3 4 5 6 7 8 9 10 11 12 13 14 15 16 17 18 19 20 21 22 23 24 25 26 27 28 29 30 31 32 33 34 35 36 37 38 39 40 41 42 43 44 45 46 47 48 49 50
000
NZUS59 KLOT 242008
HRRLOT

CHICAGO AREA WEATHER ROUNDUP
NATIONAL WEATHER SERVICE CHICAGO/ROMEOVILLE IL
300 PM CDT SUN MAY 24 2015

NOTE: "FAIR" INDICATES FEW OR NO CLOUDS BELOW 12,000 FEET WITH NO
SIGNIFICANT WEATHER AND/OR OBSTRUCTIONS TO VISIBILITY.

* THESE STATIONS ARE NOT UNDER NWS QUALITY CONTROL. THEY ALSO MAY NOT
  REPORT WEATHER SUCH AS PRECIPITATION OR FOG.

ILZ005-006-012>014-019>023-242100-
NORTHEAST ILLINOIS

CITY           SKY/WX    TMP DP  RH WIND       PRES   REMARKS
OHARE          CLOUDY    70  53  54 E12       30.02F
MIDWAY         CLOUDY    74  56  53 E9        30.02F
AURORA         RAIN      71  60  68 SE7       30.01F
LANSING*       CLOUDY    79  55  44 S8        30.02F
JOLIET*        PTSUNNY   80  64  57 S5        29.99F HX  82
WAUKEGAN       CLOUDY    60  49  66 E10       30.05F
DUPAGE AIRPORT CLOUDY    74  56  53 E12       30.00F
WHEELING       CLOUDY    66  51  58 E13G18    30.05F
KANKAKEE*      CLOUDY    80  62  54 S12G18    30.01F HX  81
MORRIS*        LGT RAIN  80  61  51 S13       29.98F HX  81
LEWIS AIRPORT* CLOUDY    79  59  51 S9        30.00F HX  80
NORTHERLY IS     N/A     59  51  75 NE5         N/A
$$

WIZ051-052-058>065-066-070>072-242100-
SOUTHEAST WISCONSIN

CITY           SKY/WX    TMP DP  RH WIND       PRES   REMARKS
MILWAUKEE      CLOUDY    58  52  80 E8        30.08F
KENOSHA*       CLOUDY    60  50  69 E13       30.07F
RACINE*        CLOUDY    57  49  74 E12       30.09F
BURLINGTON     CLOUDY    62  51  66 E8        30.05F
WAUKESHA       CLOUDY    61  52  72 E12       30.08F
WEST BEND      RAIN      59  54  82 E6        30.09F
$$

INZ001>003-010>013-019-020-242100-
NORTHWEST INDIANA

CITY           SKY/WX    TMP DP  RH WIND       PRES   REMARKS
GARY*          PTSUNNY   82  55  39 SE8       30.03F HX  82
MICHIGAN CITY* NOT AVBL
RENSSELAER*    NOT AVBL
VALPARAISO     CLOUDY    81  57  43 S12G18    30.05F HX  81
$$

LMZ740>746-242100-
SOUTHERN LAKE MICHIGAN

STATION/POSITION TIME  SKY/WX   TEMP WIND        PRES    VSBY
                                AIR  DIR/SP/G
                 (UTC)          (F)  (DEG/KT/KT) (MB)    (MI)
HARRISON CRIB    1900            57   80/ 18/ 19   N/A
BURNHAM HARBOR   2000            59   60/  8       N/A
CALUMET HARBOR   1900            61   70/  5/  7   N/A
BURNS HARBOR     1900            77  100/ 11/ 15 1018.6F
MICHIGAN CITY    1900            76   90/  7/ 10   N/A
$$

ABBREVIATIONS USED IN REMARKS
   TC - TEMPERATURE IN CELSIUS
  WCI - WIND CHILL INDEX
   HX - HEAT INDEX
  VSB - VISIBILITY
$$



USA.gov is the U.S. government's official web portal to all federal, state and local government web resources and services.